• In Germany
  • List of Countries
  • For 7 days
  • Water Temperature
  • Satellite Maps
  • Weather Map
  • Weather Widgets
  • user-avatar
    Login

    Hourly Weather Lezhe

    Today, 22 June, Friday

    Time Temperature Precipitation Wind Pressure Humidity
    00:00 +21°C° 0.2 mm 1 mps 737 mmHg 82%
    01:00 +20°C° 0.2 mm 2 mps 736 mmHg 82%
    02:00 +19°C° 0.2 mm 2 mps 736 mmHg 82%
    03:00 +19°C° 0.2 mm 2 mps 736 mmHg 82%
    04:00 +19°C° 0.2 mm 2 mps 736 mmHg 82%
    05:00 +20°C° 0.1 mm 2 mps 736 mmHg 78%
    06:00 +23°C° 0.1 mm 2 mps 736 mmHg 75%
    07:00 +24°C° 0.1 mm 2 mps 736 mmHg 71%
    08:00 +25°C° 0.3 mm 2 mps 736 mmHg 68%
    09:00 +26°C° 0.3 mm 2 mps 736 mmHg 64%
    10:00 +27°C° 0.3 mm 2 mps 736 mmHg 61%
    11:00 +28°C° 0.5 mm 3 mps 735 mmHg 61%
    12:00 +28°C° 0.5 mm 3 mps 735 mmHg 61%
    13:00 +28°C° 0.5 mm 3 mps 735 mmHg 62%
    14:00 +28°C° 0.8 mm 3 mps 735 mmHg 63%
    15:00 +27°C° 0.8 mm 3 mps 735 mmHg 65%
    16:00 +27°C° 0.8 mm 2 mps 735 mmHg 66%
    17:00 +26°C° 0.7 mm 2 mps 735 mmHg 71%
    18:00 +24°C° 0.7 mm 1 mps 735 mmHg 76%
    19:00 +23°C° 0.7 mm 1 mps 735 mmHg 81%
    20:00 +22°C° 0.2 mm 1 mps 736 mmHg 83%
    21:00 +20°C° 0.2 mm 2 mps 736 mmHg 85%
    22:00 +19°C° 0.2 mm 2 mps 736 mmHg 87%
    23:00 +18°C° 0.1 mm 2 mps 736 mmHg 86%

    Tomorrow, 23 June, Saturday

    Time Temperature Precipitation Wind Pressure Humidity
    00:00 +18°C° 0.1 mm 3 mps 737 mmHg 86%
    01:00 +17°C° 0.1 mm 3 mps 737 mmHg 86%
    02:00 +17°C° 0.3 mm 4 mps 737 mmHg 85%
    03:00 +17°C° 0.3 mm 4 mps 737 mmHg 84%
    04:00 +15°C° 0.3 mm 4 mps 737 mmHg 84%
    05:00 +15°C° 0.8 mm 4 mps 737 mmHg 84%
    06:00 +15°C° 0.8 mm 5 mps 737 mmHg 84%
    07:00 +14°C° 0.8 mm 5 mps 737 mmHg 84%
    08:00 +16°C° 0.8 mm 5 mps 738 mmHg 78%
    09:00 +17°C° 0.8 mm 5 mps 738 mmHg 73%
    10:00 +19°C° 0.8 mm 5 mps 738 mmHg 67%
    11:00 +21°C° 0 mm 4 mps 738 mmHg 61%
    12:00 +22°C° 0 mm 3 mps 738 mmHg 55%
    13:00 +25°C° 0 mm 3 mps 738 mmHg 50%
    14:00 +25°C° 0 mm 3 mps 737 mmHg 49%
    15:00 +25°C° 0 mm 3 mps 737 mmHg 49%
    16:00 +25°C° 0 mm 3 mps 736 mmHg 48%
    17:00 +24°C° 0 mm 3 mps 737 mmHg 54%
    18:00 +21°C° 0 mm 3 mps 737 mmHg 60%
    19:00 +19°C° 0 mm 3 mps 737 mmHg 66%
    20:00 +18°C° 0 mm 3 mps 737 mmHg 68%
    21:00 +17°C° 0 mm 3 mps 737 mmHg 70%
    22:00 +15°C° 0 mm 4 mps 738 mmHg 71%
    23:00 +14°C° 0 mm 4 mps 738 mmHg 73%

    Day after tomorrow, 24 June, Sunday

    Time Temperature Precipitation Wind Pressure Humidity
    00:00 +14°C° 0 mm 4 mps 738 mmHg 75%
    01:00 +13°C° 0 mm 4 mps 738 mmHg 77%
    02:00 +13°C° 0 mm 4 mps 738 mmHg 77%
    03:00 +13°C° 0 mm 4 mps 738 mmHg 78%
    04:00 +12°C° 0 mm 4 mps 738 mmHg 78%
    05:00 +14°C° 0 mm 4 mps 738 mmHg 74%
    06:00 +15°C° 0 mm 4 mps 738 mmHg 70%
    07:00 +17°C° 0 mm 5 mps 738 mmHg 66%
    08:00 +19°C° 0 mm 4 mps 738 mmHg 61%
    09:00 +21°C° 0 mm 4 mps 738 mmHg 55%
    10:00 +22°C° 0 mm 4 mps 738 mmHg 50%
    11:00 +24°C° 0 mm 3 mps 737 mmHg 48%
    12:00 +25°C° 0 mm 3 mps 737 mmHg 46%
    13:00 +26°C° 0 mm 2 mps 737 mmHg 44%
    14:00 +26°C° 0 mm 2 mps 737 mmHg 45%
    15:00 +26°C° 0 mm 3 mps 737 mmHg 47%
    16:00 +25°C° 0 mm 3 mps 736 mmHg 48%
    17:00 +24°C° 0 mm 3 mps 736 mmHg 54%
    18:00 +21°C° 0 mm 3 mps 736 mmHg 60%
    19:00 +20°C° 0 mm 3 mps 736 mmHg 66%
    20:00 +19°C° 0 mm 3 mps 737 mmHg 66%
    21:00 +18°C° 0 mm 3 mps 737 mmHg 67%
    22:00 +17°C° 0 mm 3 mps 737 mmHg 68%
    23:00 +17°C° 0 mm 4 mps 737 mmHg 68%

    25 June, Monday

    Time Temperature Precipitation Wind Pressure Humidity
    00:00 +17°C° 0 mm 4 mps 737 mmHg 68%
    01:00 +15°C° 0 mm 4 mps 737 mmHg 69%
    02:00 +15°C° 0 mm 4 mps 736 mmHg 69%
    03:00 +15°C° 0 mm 4 mps 736 mmHg 70%
    04:00 +15°C° 0 mm 4 mps 736 mmHg 70%
    05:00 +17°C° 0 mm 4 mps 736 mmHg 69%
    06:00 +18°C° 0 mm 4 mps 736 mmHg 68%
    07:00 +19°C° 0 mm 4 mps 736 mmHg 67%
    08:00 +20°C° 0 mm 4 mps 736 mmHg 63%
    09:00 +22°C° 0 mm 4 mps 736 mmHg 60%
    10:00 +23°C° 0 mm 4 mps 736 mmHg 56%
    11:00 +24°C° 0.3 mm 3 mps 736 mmHg 57%
    12:00 +25°C° 0.3 mm 3 mps 736 mmHg 58%
    13:00 +25°C° 0.3 mm 3 mps 736 mmHg 59%
    14:00 +24°C° 0.6 mm 2 mps 735 mmHg 64%
    15:00 +23°C° 0.6 mm 2 mps 735 mmHg 69%
    16:00 +21°C° 0.6 mm 2 mps 735 mmHg 74%
    17:00 +20°C° 0.9 mm 2 mps 735 mmHg 79%
    18:00 +19°C° 0.9 mm 2 mps 735 mmHg 83%
    19:00 +18°C° 0.9 mm 3 mps 735 mmHg 88%
    20:00 +18°C° 1 mm 3 mps 735 mmHg 88%
    21:00 +18°C° 1 mm 3 mps 735 mmHg 89%
    22:00 +17°C° 1 mm 4 mps 735 mmHg 90%
    23:00 +17°C° 0.8 mm 4 mps 735 mmHg 90%

    26 June, Tuesday

    Time Temperature Precipitation Wind Pressure Humidity
    00:00 +17°C° 0.8 mm 4 mps 735 mmHg 90%
    01:00 +17°C° 0.8 mm 4 mps 734 mmHg 91%
    02:00 +17°C° 1.1 mm 4 mps 734 mmHg 91%
    03:00 +17°C° 1.1 mm 4 mps 734 mmHg 91%
    04:00 +15°C° 1.1 mm 4 mps 733 mmHg 91%
    05:00 +17°C° 0.8 mm 4 mps 733 mmHg 90%
    06:00 +17°C° 0.8 mm 4 mps 733 mmHg 89%
    07:00 +17°C° 0.8 mm 4 mps 733 mmHg 88%
    08:00 +18°C° 0.3 mm 4 mps 733 mmHg 85%
    09:00 +19°C° 0.3 mm 4 mps 733 mmHg 82%
    10:00 +20°C° 0.3 mm 4 mps 733 mmHg 78%
    11:00 +20°C° 0.4 mm 4 mps 733 mmHg 79%
    12:00 +20°C° 0.4 mm 4 mps 733 mmHg 80%
    13:00 +20°C° 0.4 mm 3 mps 733 mmHg 80%
    14:00 +20°C° 0.5 mm 3 mps 733 mmHg 80%
    15:00 +21°C° 0.5 mm 3 mps 733 mmHg 79%
    16:00 +21°C° 0.5 mm 3 mps 733 mmHg 78%
    17:00 +20°C° 0.5 mm 3 mps 733 mmHg 81%
    18:00 +20°C° 0.5 mm 3 mps 733 mmHg 83%
    19:00 +19°C° 0.5 mm 3 mps 733 mmHg 86%
    20:00 +19°C° 0.4 mm 3 mps 733 mmHg 87%
    21:00 +18°C° 0.4 mm 3 mps 733 mmHg 87%
    22:00 +18°C° 0.4 mm 3 mps 733 mmHg 88%
    23:00 +18°C° 0.1 mm 3 mps 733 mmHg 88%

    27 June, Wednesday

    Time Temperature Precipitation Wind Pressure Humidity
    00:00 +18°C° 0.1 mm 3 mps 733 mmHg 88%
    01:00 +17°C° 0.1 mm 3 mps 733 mmHg 88%
    02:00 +17°C° 0.3 mm 3 mps 732 mmHg 89%
    03:00 +17°C° 0.3 mm 3 mps 732 mmHg 89%
    04:00 +17°C° 0.3 mm 3 mps 732 mmHg 90%
    05:00 +18°C° 0.4 mm 3 mps 732 mmHg 88%
    06:00 +18°C° 0.4 mm 4 mps 732 mmHg 86%
    07:00 +19°C° 0.4 mm 4 mps 732 mmHg 85%
    08:00 +20°C° 0.3 mm 4 mps 733 mmHg 82%
    09:00 +20°C° 0.3 mm 4 mps 733 mmHg 78%
    10:00 +21°C° 0.3 mm 5 mps 733 mmHg 75%
    11:00 +21°C° 0.4 mm 5 mps 733 mmHg 75%
    12:00 +21°C° 0.4 mm 5 mps 732 mmHg 75%
    13:00 +21°C° 0.4 mm 5 mps 732 mmHg 75%
    14:00 +21°C° 0.4 mm 5 mps 732 mmHg 76%
    15:00 +21°C° 0.4 mm 5 mps 732 mmHg 77%
    16:00 +21°C° 0.4 mm 4 mps 732 mmHg 79%
    17:00 +20°C° 0.2 mm 4 mps 733 mmHg 81%
    18:00 +20°C° 0.2 mm 4 mps 733 mmHg 83%
    19:00 +19°C° 0.2 mm 3 mps 733 mmHg 85%
    20:00 +19°C° 0.1 mm 3 mps 733 mmHg 86%
    21:00 +18°C° 0.1 mm 3 mps 733 mmHg 86%
    22:00 +18°C° 0.1 mm 3 mps 734 mmHg 86%
    23:00 +18°C° 0 mm 3 mps 734 mmHg 87%
    Show more